TimeEDT,TemperatureF,Dew PointF,Humidity,Sea Level PressureIn,VisibilityMPH,Wind Direction,Wind SpeedMPH,Gust SpeedMPH,PrecipitationIn,Events,Conditions,WindDirDegrees,DateUTC
12:53 AM,70.0,61.0,73,29.72,10.0,WNW,16.1,21.9,N/A,,Clear,300,2012-10-28 04:53:00
2:53 AM,70.0,62.1,76,29.72,10.0,West,11.5,-,N/A,,Clear,280,2012-10-28 06:53:00
3:53 AM,70.0,64.0,81,29.72,9.0,West,10.4,-,N/A,,Clear,280,2012-10-28 07:53:00
4:53 AM,70.0,64.9,84,29.72,7.0,West,10.4,-,N/A,,Clear,280,2012-10-28 08:53:00
5:53 AM,70.0,66.0,87,29.72,7.0,WNW,9.2,-,N/A,,Clear,300,2012-10-28 09:53:00
6:53 AM,70.0,66.0,87,29.73,6.0,WNW,9.2,-,N/A,,Partly Cloudy,300,2012-10-28 10:53:00
7:53 AM,70.0,66.0,87,29.76,5.0,WNW,10.4,-,N/A,,Clear,290,2012-10-28 11:53:00
8:53 AM,72.0,64.9,78,29.77,6.0,WNW,12.7,-,N/A,,Haze,290,2012-10-28 12:53:00
9:53 AM,75.0,64.9,71,29.78,7.0,WNW,13.8,-,N/A,,Clear,300,2012-10-28 13:53:00
11:53 AM,77.0,64.0,64,29.77,8.0,WNW,17.3,24.2,N/A,,Mostly Cloudy,300,2012-10-28 15:53:00
12:53 PM,80.1,64.0,58,29.75,9.0,WNW,12.7,21.9,N/A,,Partly Cloudy,290,2012-10-28 16:53:00
1:53 PM,80.1,63.0,56,29.72,9.0,West,16.1,26.5,N/A,,Clear,280,2012-10-28 17:53:00
2:53 PM,81.0,61.0,50,29.71,10.0,West,20.7,28.8,N/A,,Partly Cloudy,280,2012-10-28 18:53:00
3:53 PM,81.0,57.9,45,29.70,10.0,West,18.4,27.6,N/A,,Scattered Clouds,270,2012-10-28 19:53:00
4:53 PM,79.0,57.9,48,29.71,10.0,West,15.0,24.2,N/A,,Scattered Clouds,280,2012-10-28 20:53:00
5:53 PM,77.0,57.0,50,29.71,10.0,West,16.1,20.7,N/A,,Partly Cloudy,270,2012-10-28 21:53:00
6:53 PM,73.9,57.0,55,29.73,10.0,West,12.7,23.0,N/A,,Clear,280,2012-10-28 22:53:00
7:53 PM,72.0,57.0,59,29.75,10.0,West,11.5,-,N/A,,Clear,280,2012-10-28 23:53:00
8:53 PM,71.1,57.0,61,29.78,10.0,West,10.4,-,N/A,,Clear,280,2012-10-29 00:53:00
9:53 PM,71.1,57.9,63,29.80,10.0,WNW,10.4,-,N/A,,Overcast,300,2012-10-29 01:53:00
10:53 PM,70.0,55.9,61,29.81,10.0,WNW,12.7,-,N/A,,Overcast,300,2012-10-29 02:53:00
11:53 PM,69.1,55.9,63,29.81,10.0,WNW,10.4,-,N/A,,Overcast,300,2012-10-29 03:53:00